Location: Guferjoch
(46.7462°N, 8.4506°E)
Time: 23:40:57
(UTC+00:00)

NOSS 2-1 (D) - Pass Details

Date: 14 July 2020
Orbit: 447 x 1756 km, 63.3° (Epoch: 01 August)

Event Time Altitude Azimuth Distance (km) Brightness Sun altitude
Rises 00:30:14 0° 319° (NW) 3,044 7.6 -20.4°
Reaches altitude 10° 00:32:15 10° 318° (NW) 2,267 6.9 -20.3°
Maximum altitude 00:37:28 78° 233° (SW) 957 4.3 -20.0°
Enters shadow 00:43:40 15° 149° (SSE) 2,723 6.4 -19.7°
